User: anonymous   Login
Location: Saint Peter Port
(49.4500°N, 2.5330°W)
Time: 18:49:02
(UTC+01:00)
Language:

Cosmos 2242 Rocket - Orbit

View from above orbital plane
View from above orbital plane
View from above satellite
View from above satellite

Ground track
Ground track

The orbit data is extracted from the following two-line orbital elements,

1 22627U 93024B   15187.16082894  .00000290  00000-0  36888-4 0  9995
2 22627 082.5215 041.2636 0024676 135.9207 003.5834 14.77917591196974
Epoch (UTC): 06 July 2015 03:51:35
Eccentricity: 0.0024676
inclination: 82.5215°
perigee height: 618 km
apogee height: 653 km
right ascension of ascending node: 41.2636°
argument of perigee: 135.9207°
revolutions per day: 14.77917591
mean anomaly at epoch: 3.5834°
orbit number at epoch: 19697

The dashed part of the orbit path shows where the satellite is in the earth's shadow,  

DLR